This demonstration page uses our WeatherBlox Daily Observations layout. Learn more.

Left ArrowRight Arrow

Hourly Observations for April 30, 2019

Temp ( °F °C ) Dew Point ( °F °C ) Humidity (%) Winds ( mph kmh ) Pressure ( in mb ) Visibility ( mi km ) Precip ( " mm )
12:53 am 00:53 Mostly Clear 65 18.3 62 16.7 90 90 E 8 13 29.70 1006 10 16 0.00 0.00
1:08 am 01:08 Mostly Cloudy 66 18.9 62 16.7 87 87 ESE 9 15 29.73 1007 10 16 0.00 0.00
1:53 am 01:53 Cloudy 67 19.4 63 17.2 87 87 ESE 9 15 29.68 1005 10 16 0.00 0.00
2:53 am 02:53 Cloudy 69 20.6 63 17.2 81 81 SE 14 22 29.65 1004 10 16 0.00 0.00
3:53 am 03:53 Cloudy 69 20.6 63 17.2 81 81 SE 10 17 29.65 1004 10 16 0.00 0.00
4:53 am 04:53 Partly Cloudy 69 20.6 64 17.8 84 84 SE 14 22 29.63 1004 9 14 0.00 0.00
5:43 am 05:43 Mostly Cloudy 68 20 63 17.2 84 84 SE 5 7 29.69 1005 8 13 0.00 0.00
5:53 am 05:53 Cloudy 68 20 63 17.2 84 84 SE 6 9 29.66 1004 8 13 0.00 0.00
6:53 am 06:53 Mostly Cloudy with Mist and Fog 67 19.4 64 17.8 91 91 ENE 7 11 29.71 1006 6 10 0.00 0.00
7:53 am 07:53 Sunny with Mist and Fog 65 18.3 63 17.2 93 93 NNE 5 7 29.72 1006 3 5 0.00 0.00
8:53 am 08:53 Mostly Sunny 70 21.1 64 17.8 82 82 ESE 7 11 29.72 1006 7 11 0.00 0.00
9:53 am 09:53 Sunny 73 22.8 64 17.8 74 74 SSE 10 17 29.71 1006 9 14 0.00 0.00
10:53 am 10:53 Mostly Sunny 76 24.4 63 17.2 64 64 Calm 29.72 1007 10 16 0.00 0.00
11:53 am 11:53 Sunny 79 26.1 55 12.8 44 44 W 10 17 29.72 1007 10 16 0.00 0.00
12:53 pm 12:53 Sunny 80 26.7 55 12.8 42 42 VRB 6 9 29.71 1006 10 16 0.00 0.00
1:53 pm 13:53 Sunny 84 28.9 52 11.1 33 33 VRB 3 6 29.67 1005 10 16 0.00 0.00
2:53 pm 14:53 Mostly Sunny 87 30.6 38 3.3 18 18 W 14 22 29.64 1004 10 16 0.00 0.00
3:53 pm 15:53 Sunny 89 31.7 33 0.6 14 14 WNW 16 26 29.61 1003 10 16 0.00 0.00
4:03 pm 16:03 Sunny 90 32.2 31 -0.6 12 12 W 17 28 29.51 999 10 16 0.00 0.00
4:53 pm 16:53 Sunny 90 32.2 28 -2.2 11 11 W 16 26 29.58 1002 10 16 0.00 0.00
5:53 pm 17:53 Sunny 89 31.7 26 -3.3 10 10 W 16 26 29.59 1002 10 16 0.00 0.00
6:09 pm 18:09 Sunny 89 31.7 27 -2.8 11 11 W 13 20 29.52 1000 10 16 0.00 0.00
6:53 pm 18:53 Sunny 87 30.6 28 -2.2 12 12 WNW 16 26 29.61 1003 10 16 0.00 0.00
7:53 pm 19:53 Sunny 83 28.3 34 1.1 17 17 WNW 14 22 29.62 1003 10 16 0.00 0.00
8:53 pm 20:53 Clear 73 22.8 41 5 32 32 WNW 9 15 29.65 1004 10 16 0.00 0.00
9:53 pm 21:53 Clear 73 22.8 47 8.3 40 40 SE 8 13 29.70 1006 10 16 0.00 0.00
10:53 pm 22:53 Clear 73 22.8 54 12.2 51 51 SE 7 11 29.72 1006 10 16 0.00 0.00
11:53 pm 23:53 Clear 69 20.6 56 13.3 63 63 SE 9 15 29.73 1007 10 16 0.00 0.00

Powered by AerisWeather